Wind_Speed
4 5 6 6 6 7 9 11 11 13 16 16 15 13 12 9 7 5 4 4 6 6 8 5 8 7 14 16 12 12 11 9 6 6 5 3 2 6 7 7 8 6 4 1 3
4 6 6 7 7 8 9 11 11 13 15 15 14 12 11 8 7 5 5 5 9 6 9 6 10 12 17 14 11 10 11 7 7 7 7 7 5 8 8 8 10 8 7 5 7
5 6 7 7 8 9 10 11 11 12 13 14 13 11 10 7 7 6 6 9 11 11 10 8 10 13 13 11 12 8 10 9 8 8 12 11 10 9 9 9 8 9 7 6 8
6 6 7 7 8 10 11 12 11 12 13 13 14 13 10 8 4 7 10 11 13 10 5 9 11 11 11 10 11 9 8 7 7 9 9 10 8 6 5 8 8 7 6 4 5
7 7 7 8 9 11 12 13 13 12 14 15 15 13 10 7 9 10 13 15 15 12 12 15 11 8 9 9 11 8 7 6 9 9 8 8 4 3 2 4 6 8 5 6 8
8 8 8 8 9 11 13 14 14 13 14 15 14 12 9 9 9 10 13 10 14 14 13 12 11 9 8 8 8 3 3 5 6 7 5 4 2 2 3 1 3 5 2 6 7
8 9 9 9 10 12 13 14 15 15 15 16 15 13 10 8 9 9 14 16 13 12 11 11 11 7 3 7 6 5 7 4 4 4 4 4 7 6 4 1 4 4 1 5 9
8 9 9 10 11 13 14 15 15 15 16 17 15 14 8 7 9 10 14 11 9 8 9 8 8 8 6 3 6 3 5 4 4 4 2 7 7 5 6 3 6 4 4 2 7
9 9 10 10 12 14 15 16 16 15 14 15 15 9 3 3 8 11 15 14 9 7 4 5 3 5 3 0 5 4 7 3 5 5 7 10 13 10 12 9 9 8 3 3 9
9 10 11 12 13 16 17 17 15 14 14 13 11 9 6 8 8 15 17 14 9 5 1 2 3 6 4 1 0 3 1 3 8 10 8 15 20 16 14 13 8 10 7 6 5
11 11 12 13 15 17 18 18 16 14 16 12 13 6 10 12 14 14 11 9 7 3 3 3 3 2 3 6 4 1 3 5 9 11 15 16 16 18 19 19 14 12 8 8 9
12 13 13 15 18 19 20 19 17 17 13 11 9 7 10 11 14 13 11 7 5 5 5 3 3 2 3 4 5 2 9 9 5 5 12 11 15 14 18 21 17 14 15 13 14
14 14 16 18 19 20 20 18 15 13 12 9 7 6 6 11 11 9 8 6 4 3 1 2 6 5 3 1 6 4 1 4 6 10 14 15 14 6 10 12 15 17 18 19 20
15 17 20 21 20 21 19 17 10 13 8 9 6 4 6 8 11 10 8 8 6 5 4 4 5 3 8 4 6 5 3 5 6 9 7 13 10 14 9 12 14 14 20 19 21
17 19 22 21 20 20 18 16 13 11 4 7 8 7 9 10 10 10 8 4 4 2 2 1 2 5 3 6 7 7 9 9 9 9 14 10 7 10 24 20 11 15 12 16 19
18 20 21 20 19 16 15 14 12 2 3 8 9 11 13 12 9 7 8 6 3 3 5 7 9 9 5 6 9 10 13 14 8 4 2 4 3 13 18 23 20 23 12 10 15
18 21 21 19 17 11 16 12 3 1 12 10 12 12 13 11 6 3 5 6 6 4 1 8 5 4 4 8 10 10 10 5 2 1 3 5 5 18 18 19 22 19 15 15 14
18 21 21 18 14 10 13 8 2 11 4 11 12 13 11 7 4 5 6 9 8 9 13 9 8 7 9 8 10 13 7 5 5 5 9 11 7 12 27 20 25 20 14 11 9
16 19 19 18 12 12 10 3 6 6 5 8 8 9 12 9 6 5 9 12 13 10 12 8 8 9 8 18 18 8 6 6 6 12 5 5 11 20 18 20 21 18 14 13 10
15 16 16 15 14 14 11 8 9 8 7 9 13 10 8 12 9 6 9 4 4 7 7 13 12 14 13 11 13 13 12 5 5 4 7 7 10 10 19 21 21 24 21 17 15
15 18 17 17 18 13 11 12 10 7 7 5 7 10 7 7 11 9 5 6 8 4 3 5 7 7 8 9 9 9 9 7 4 6 7 8 9 18 22 21 21 22 24 20 19
14 14 17 21 19 12 12 13 9 6 6 5 5 8 9 10 9 8 7 8 8 8 7 6 6 7 6 7 8 12 10 5 6 9 10 10 17 7 18 25 29 25 28 18 20
10 10 18 22 17 13 12 12 10 8 7 6 5 8 7 6 5 8 7 7 4 6 7 9 7 6 3 6 9 14 11 10 12 13 14 15 19 25 29 30 30 30 29 22 18
6 11 17 21 20 16 12 12 12 10 8 7 6 6 8 9 9 7 10 10 10 10 13 12 13 13 15 14 14 12 13 13 14 15 24 23 30 28 26 28 27 29 27 22 24
9 8 15 19 18 17 16 12 12 11 10 9 9 7 4 3 5 7 9 9 9 10 11 11 12 13 15 14 14 15 15 18 22 24 23 30 26 26 27 23 23 21 25 22 21
10 8 15 10 16 18 16 13 12 10 11 11 12 11 11 11 11 12 13 13 14 14 15 16 13 15 19 18 21 28 25 24 26 28 30 24 25 24 19 24 25 24 23 27 20
12 12 10 16 13 15 17 16 16 15 14 14 15 15 13 13 14 16 17 19 21 23 23 22 16 15 23 19 20 23 25 20 22 22 20 20 21 18 21 22 22 22 22 19 10
Wind_Direction
164 148 143 140 144 150 148 149 150 143 142 145 141 137 134 118 97 103 71 75 138 141 137 106 68 62 115 122 116 116 122 116 113 97 82 129 89 54 67 53 48 84 86 87 164
176 155 149 144 149 157 154 155 154 150 151 151 148 142 133 116 97 100 82 89 117 115 127 98 70 101 120 105 104 126 122 100 128 103 73 104 103 83 72 67 63 85 92 120 148
182 166 157 149 154 161 159 158 155 154 151 152 149 144 138 118 101 96 98 107 108 109 92 70 103 121 121 110 116 106 89 103 122 95 105 102 105 96 69 64 71 76 88 122 140
183 178 162 157 158 164 164 160 157 157 151 150 149 146 139 130 111 102 105 111 112 88 76 112 110 114 111 113 111 95 90 125 112 130 112 111 109 96 71 58 55 81 104 122 144
184 183 169 162 161 166 166 164 159 156 154 148 149 148 139 124 121 121 119 116 118 100 105 103 103 112 117 120 117 80 101 122 145 146 138 104 145 158 53 18 26 43 119 166 173
187 181 174 164 164 166 167 167 162 156 154 151 148 145 133 127 123 128 134 129 136 99 110 104 102 115 116 128 143 109 114 129 165 163 109 186 323 32 17 339 359 10 64 182 196
188 180 174 167 165 167 167 167 166 161 155 151 143 140 135 141 140 145 139 138 126 114 112 107 93 119 99 133 130 96 112 145 154 215 230 253 286 306 271 276 123 61 316 196 186
187 178 170 166 165 165 164 165 169 167 164 159 147 138 123 143 160 158 166 144 153 138 109 117 99 87 72 85 164 38 171 167 173 179 218 235 282 300 340 220 165 125 7 177 187
182 174 164 163 164 162 162 163 165 170 172 174 179 176 162 173 168 181 180 178 167 147 131 97 104 51 19 279 189 179 162 190 202 223 252 255 282 292 299 289 230 210 221 283 190
175 168 159 160 161 159 159 158 158 161 167 172 176 173 191 183 173 165 175 183 189 185 148 37 43 38 55 306 136 144 142 276 222 236 263 265 273 269 280 285 270 228 222 229 225
169 161 158 158 157 155 155 154 152 154 150 151 159 180 181 168 166 166 160 168 191 213 314 332 16 30 56 52 164 220 196 316 258 259 269 292 286 269 270 273 250 239 231 211 171
163 158 158 154 154 156 156 156 153 148 150 150 153 154 172 184 180 188 189 194 202 229 262 316 297 52 43 51 69 2 245 291 297 258 284 296 300 280 269 274 282 265 250 230 223
159 158 154 156 157 155 154 155 151 152 149 151 149 146 165 183 187 176 174 177 182 222 181 90 117 124 68 87 73 43 197 312 300 315 314 317 319 289 291 291 275 261 248 232 236
159 158 158 160 156 156 155 153 148 148 136 147 143 150 161 157 167 163 152 132 112 93 84 109 146 14 352 20 322 0 279 335 309 296 299 316 308 309 327 333 312 295 257 248 240
160 162 164 159 159 159 155 155 141 140 120 163 161 144 164 154 165 165 169 165 152 149 73 258 236 275 317 297 303 296 337 316 309 289 292 315 302 309 323 323 342 333 274 253 251
164 167 166 164 161 161 162 163 159 143 126 159 163 157 147 141 151 183 204 214 235 279 258 275 283 279 297 280 274 277 296 313 321 323 278 334 245 305 330 333 316 318 302 273 262
166 169 169 168 165 158 160 165 164 111 147 167 169 171 160 162 161 177 225 247 245 341 37 323 321 298 316 324 316 283 288 306 275 274 318 297 284 313 333 333 344 321 299 294 284
168 172 175 174 171 146 150 154 122 136 116 164 172 178 188 205 239 238 267 264 271 280 293 301 301 318 303 335 320 294 282 264 294 308 324 297 251 327 327 317 323 325 291 291 293
168 176 182 179 175 158 151 147 113 126 139 163 180 192 204 214 232 260 289 287 282 286 273 293 287 293 263 303 309 278 278 262 260 279 270 276 290 320 337 330 320 321 296 281 271
162 169 177 182 170 158 148 123 111 105 117 159 187 189 210 215 225 252 273 272 299 259 269 274 280 287 280 272 285 248 261 265 237 266 285 292 296 295 318 333 332 323 307 276 264
157 163 170 172 163 158 148 137 127 128 116 131 184 200 206 202 208 228 251 198 208 191 276 277 248 274 279 266 254 235 227 230 267 274 298 300 286 302 304 310 316 318 312 273 261
162 173 174 165 165 154 155 154 155 155 173 164 194 209 207 206 216 220 209 210 214 238 262 263 237 258 252 220 241 233 228 249 280 300 271 272 290 317 317 314 313 307 312 269 257
170 181 177 177 180 172 176 186 174 166 169 180 196 200 202 207 220 233 223 230 247 271 267 258 246 259 257 264 258 233 255 278 292 288 277 286 292 301 310 308 306 307 305 291 240
177 175 182 186 187 187 184 192 191 191 195 217 237 236 232 230 239 245 242 252 264 271 270 262 250 254 271 281 276 262 267 273 272 274 291 280 293 310 312 311 306 286 289 288 282
197 197 191 194 192 186 188 190 198 207 218 231 239 235 236 231 278 278 270 266 245 256 258 257 265 265 264 266 264 267 271 275 275 288 277 292 292 309 313 304 315 293 267 278 275
214 215 208 199 203 201 203 205 213 218 227 239 240 244 256 275 281 283 282 277 276 272 269 267 277 278 275 270 279 280 279 279 278 288 287 290 296 310 303 301 299 302 279 274 278
223 221 223 227 219 224 227 233 241 247 251 253 255 259 259 262 268 273 277 277 277 279 279 276 272 278 278 279 277 275 278 275 277 280 279 288 299 305 312 311 299 300 291 275 270
Height
3158 3158 3160 3160 3161 3163 3164 3165 3167 3169 3171 3172 3174 3176 3178 3179 3180 3181 3181 3182 3183 3184 3185 3186 3185 3183 3184 3186 3188 3189 3190 3191 3192 3192 3193 3194 3195 3195 3194 3194 3193 3193 3194 3194 3194
3158 3158 3160 3161 3162 3163 3164 3166 3168 3170 3172 3173 3176 3177 3180 3181 3181 3182 3183 3182 3184 3185 3187 3187 3187 3187 3187 3189 3189 3190 3191 3192 3193 3193 3193 3194 3196 3196 3196 3195 3194 3194 3195 3195 3195
3157 3158 3159 3161 3162 3164 3165 3166 3168 3170 3172 3174 3177 3179 3181 3182 3183 3183 3183 3184 3186 3186 3187 3188 3188 3190 3190 3191 3191 3192 3192 3193 3194 3194 3195 3195 3196 3197 3197 3196 3196 3195 3195 3196 3197
3157 3158 3159 3161 3162 3164 3165 3167 3169 3171 3173 3175 3178 3180 3181 3183 3186 3184 3184 3186 3187 3188 3188 3189 3190 3191 3191 3192 3193 3193 3193 3194 3194 3195 3196 3197 3197 3198 3198 3198 3197 3195 3196 3196 3197
3156 3157 3159 3160 3162 3164 3166 3167 3170 3172 3174 3176 3179 3181 3183 3184 3185 3185 3186 3187 3189 3190 3191 3191 3192 3193 3193 3193 3194 3194 3195 3195 3195 3196 3197 3197 3198 3199 3199 3199 3198 3197 3197 3197 3197
3156 3157 3158 3160 3162 3164 3166 3168 3170 3173 3175 3178 3180 3182 3184 3186 3185 3186 3188 3190 3191 3191 3192 3193 3193 3193 3194 3195 3196 3196 3196 3196 3196 3197 3197 3198 3198 3198 3198 3199 3198 3198 3198 3198 3198
3155 3157 3158 3160 3162 3164 3166 3168 3171 3174 3176 3179 3181 3183 3185 3187 3187 3188 3189 3191 3192 3194 3194 3195 3195 3195 3195 3196 3197 3196 3197 3197 3197 3197 3197 3198 3197 3197 3198 3198 3198 3198 3198 3198 3198
3154 3156 3158 3159 3161 3164 3166 3168 3171 3173 3176 3179 3182 3184 3186 3187 3188 3189 3190 3192 3193 3194 3195 3195 3196 3196 3196 3196 3197 3198 3198 3198 3198 3198 3198 3199 3197 3197 3197 3197 3197 3198 3198 3198 3198
3153 3155 3157 3159 3161 3164 3166 3169 3171 3174 3176 3179 3183 3185 3187 3187 3188 3189 3190 3192 3193 3194 3195 3196 3196 3197 3197 3196 3196 3196 3196 3197 3198 3197 3197 3198 3195 3196 3195 3196 3196 3197 3197 3197 3197
3153 3155 3157 3159 3161 3164 3167 3169 3172 3175 3177 3180 3183 3188 3187 3187 3188 3189 3191 3193 3194 3195 3196 3196 3197 3196 3195 3195 3196 3196 3196 3196 3196 3197 3196 3195 3193 3193 3193 3193 3194 3195 3195 3196 3196
3153 3155 3157 3159 3162 3164 3168 3170 3175 3177 3177 3180 3183 3184 3185 3188 3188 3191 3192 3194 3195 3196 3197 3196 3197 3196 3195 3195 3194 3194 3194 3194 3193 3193 3192 3191 3188 3189 3190 3189 3190 3191 3192 3194 3195
3153 3155 3157 3160 3162 3165 3168 3171 3174 3178 3180 3181 3182 3184 3185 3187 3189 3191 3194 3196 3196 3196 3196 3197 3196 3195 3195 3195 3195 3196 3195 3194 3192 3191 3190 3187 3184 3185 3184 3184 3186 3188 3188 3190 3192
3153 3155 3158 3160 3163 3167 3170 3173 3175 3178 3180 3183 3183 3185 3186 3188 3190 3192 3194 3195 3196 3196 3196 3196 3196 3195 3195 3196 3196 3195 3195 3194 3193 3190 3188 3185 3179 3180 3181 3181 3181 3182 3184 3186 3187
3153 3156 3158 3161 3167 3168 3172 3174 3177 3179 3182 3185 3185 3186 3188 3188 3191 3193 3195 3196 3196 3196 3196 3196 3196 3196 3195 3196 3196 3195 3194 3194 3192 3191 3190 3187 3185 3179 3178 3178 3177 3177 3178 3180 3182
3153 3156 3159 3164 3166 3170 3174 3175 3178 3180 3182 3186 3186 3187 3187 3191 3192 3193 3194 3196 3196 3196 3198 3198 3196 3196 3197 3196 3196 3195 3194 3193 3192 3190 3189 3188 3188 3178 3177 3176 3174 3173 3173 3175 3177
3154 3157 3160 3165 3168 3171 3174 3176 3179 3182 3182 3184 3186 3187 3189 3190 3192 3193 3194 3196 3196 3196 3195 3196 3196 3196 3196 3195 3195 3194 3194 3192 3189 3188 3189 3187 3187 3178 3176 3174 3172 3169 3169 3169 3170
3154 3158 3162 3166 3170 3172 3174 3177 3180 3179 3183 3185 3186 3187 3189 3191 3193 3193 3194 3195 3196 3196 3195 3195 3194 3194 3194 3194 3193 3193 3193 3193 3190 3188 3186 3185 3185 3177 3174 3172 3170 3168 3166 3164 3164
3155 3159 3163 3166 3170 3172 3175 3179 3179 3179 3181 3183 3185 3187 3189 3191 3192 3193 3194 3194 3194 3195 3194 3193 3193 3192 3192 3193 3193 3191 3192 3192 3189 3184 3184 3182 3180 3176 3173 3170 3167 3164 3163 3162 3161
3156 3160 3163 3167 3170 3173 3176 3177 3178 3179 3181 3182 3185 3186 3188 3190 3192 3192 3192 3192 3192 3192 3194 3192 3190 3189 3189 3189 3190 3188 3189 3189 3189 3186 3185 3179 3176 3175 3172 3169 3165 3162 3161 3160 3159
3157 3160 3164 3167 3170 3174 3176 3176 3178 3179 3180 3181 3184 3186 3187 3188 3190 3190 3190 3190 3189 3190 3190 3189 3188 3186 3186 3186 3186 3187 3187 3187 3186 3184 3180 3177 3175 3172 3170 3168 3165 3161 3159 3158 3156
3159 3162 3164 3167 3171 3174 3176 3177 3179 3180 3181 3182 3183 3185 3186 3186 3188 3189 3189 3189 3188 3189 3188 3188 3188 3186 3184 3183 3183 3183 3183 3183 3184 3183 3178 3174 3173 3171 3169 3165 3162 3159 3156 3154 3152
3160 3163 3165 3167 3172 3173 3175 3177 3178 3179 3181 3182 3183 3184 3185 3186 3186 3187 3187 3187 3187 3187 3187 3186 3185 3184 3183 3181 3181 3181 3181 3181 3181 3180 3177 3175 3170 3167 3166 3163 3159 3157 3152 3149 3149
3161 3163 3165 3167 3171 3173 3175 3176 3178 3180 3180 3182 3182 3183 3184 3185 3186 3185 3185 3185 3185 3185 3184 3183 3182 3182 3181 3182 3180 3179 3179 3178 3177 3175 3174 3171 3165 3164 3162 3160 3157 3153 3149 3147 3144
3162 3163 3165 3167 3169 3172 3174 3175 3177 3178 3179 3180 3181 3182 3182 3183 3183 3183 3183 3183 3183 3182 3181 3181 3179 3180 3179 3179 3178 3177 3176 3175 3174 3172 3168 3165 3160 3159 3157 3153 3150 3146 3144 3142 3142
3161 3162 3164 3166 3168 3170 3172 3174 3175 3176 3177 3178 3179 3179 3180 3181 3181 3181 3181 3181 3180 3180 3178 3178 3177 3176 3175 3175 3174 3173 3172 3171 3168 3166 3163 3158 3156 3154 3151 3147 3143 3139 3137 3136 3135
3160 3161 3163 3164 3167 3169 3170 3172 3173 3174 3175 3175 3176 3177 3177 3178 3178 3178 3178 3177 3177 3177 3176 3175 3173 3172 3170 3171 3170 3166 3166 3164 3162 3159 3155 3153 3151 3149 3146 3142 3138 3134 3133 3131 3130
3158 3160 3161 3163 3164 3166 3168 3169 3170 3171 3172 3172 3173 3173 3174 3174 3174 3173 3173 3172 3171 3170 3170 3169 3168 3167 3164 3165 3164 3159 3157 3157 3156 3153 3152 3150 3148 3145 3142 3137 3134 3130 3128 3127 3127